PROPCUBE 3

Last updated on Sun Dec 14 2025 00:03:49 GMT+0000 (Coordinated Universal Time)

1 40973U 15058K 25346.72580933 .00008491 00000+0 70859-3 0 9992 2 40973 64.7688 114.4436 0130469 133.8455 227.3530 14.92691398 86951
UTC large
Height (km)
Speed (km/s)
/
Latitude / Longitude
Inclination (degrees)
Orbital Period (minutes)
Azimuth
Elevation
Range (km)
Doppler Factor

Next 0 passes for location: London (51.5072 / 0.1276)

Sorry there are no passes over London.